This is the latest recevied weather packets stored in our database for station/object EA3HRE-13. If no packets are shown the sender has not sent any weather packets the latest 10 day(s).
| Time | Temp. | Humidity | Pressure | Rain* | Wind** | Luminosity | Snow |
|---|---|---|---|---|---|---|---|
| 1778059086 | 17.78° C | 100% | 1003.3 hPa | 0 mm | - | - | - |
| 1778058486 | 17.78° C | 100% | 1003.3 hPa | 0 mm | - | - | - |
| 1778057886 | 17.78° C | 100% | 1003.2 hPa | 0 mm | - | - | - |
| 1778057286 | 17.78° C | 100% | 1003.1 hPa | 0 mm | - | - | - |
| 1778056686 | 17.22° C | 100% | 1003.3 hPa | 0 mm | - | - | - |
| 1778056086 | 17.22° C | 100% | 1003.1 hPa | 0 mm | - | - | - |
| 1778055456 | 16.67° C | 100% | 1003.2 hPa | 0 mm | - | - | - |
| 1778054856 | 16.67° C | 100% | 1003.2 hPa | 0 mm | - | - | - |
| 1778054255 | 16.11° C | 100% | 1002.9 hPa | 0 mm | - | - | - |
| 1778053655 | 16.11° C | 100% | 1002.9 hPa | 0 mm | - | - | - |
| 1778053025 | 15.56° C | 100% | 1003.1 hPa | 0 mm | - | - | - |
| 1778052425 | 15.56° C | 100% | 1109.4 hPa | 0 mm | - | - | - |
| 1778051795 | 15.56° C | 100% | 1003.1 hPa | 0 mm | - | - | - |
| 1778051195 | 15° C | 100% | 1003.1 hPa | 0 mm | - | - | - |
| 1778050595 | 15° C | 100% | 1003.1 hPa | 0 mm | - | - | - |
| 1778049991 | 14.44° C | 100% | 1002.9 hPa | 0 mm | - | - | - |
| 1778049391 | 14.44° C | 100% | 1002.9 hPa | 0 mm | - | - | - |
| 1778048791 | 13.89° C | 100% | 1002.8 hPa | 0 mm | - | - | - |
| 1778048191 | 13.89° C | 100% | 1002.8 hPa | 0 mm | - | - | - |
| 1778047591 | 13.89° C | 100% | 1002.6 hPa | 0 mm | - | - | - |
| 1778046961 | 13.89° C | 100% | 1002.6 hPa | 0 mm | - | - | - |
| 1778046361 | 13.33° C | 100% | 1002.5 hPa | 0 mm | - | - | - |
| 1778045761 | 13.33° C | 100% | 1002.5 hPa | 0 mm | - | - | - |
| 1778045160 | 13.33° C | 100% | 1002.3 hPa | 0 mm | - | - | - |
| 1778044530 | 12.78° C | 100% | 1002.4 hPa | 0 mm | - | - | - |
* Rain latest hour (hover to see other rain measurements)
** Current wind speed in m/s (hover to see current wind gust speed)